RYR6566 LEPA-LEAL

Flight info

Callsign RYR6566
Flight time N/A
Altitude 23000
Route BAVER M603 GERVU
Aircraft B738/M-SDE2E3FGHIRWXY/LB1

Departure

Time N/A
Airport Palma de Mallorca Airport (LEPA)

Arrival

Time 2026-04-29 13:51
Airport Alicante-Elche Miguel Hernández Airport (LEAL)
Time Latitude Longitude Altitude Speed Heading
2026-04-29 13:28 38.87849 0.66481 22910 ft 366 kts 243°
2026-04-29 13:28 38.87151 0.64480 22915 ft 366 kts 247°
2026-04-29 13:28 38.85877 0.60435 22912 ft 366 kts 247°
2026-04-29 13:28 38.84899 0.57405 22912 ft 366 kts 247°
2026-04-29 13:29 38.83926 0.54381 22912 ft 366 kts 247°
2026-04-29 13:29 38.82975 0.51387 22911 ft 366 kts 247°
2026-04-29 13:29 38.82042 0.48348 22910 ft 366 kts 250°
2026-04-29 13:29 38.81310 0.45205 22916 ft 367 kts 255°
2026-04-29 13:30 38.80677 0.42032 22917 ft 367 kts 255°
2026-04-29 13:30 38.80021 0.38887 22921 ft 367 kts 254°
2026-04-29 13:30 38.79346 0.35715 22924 ft 367 kts 254°
2026-04-29 13:30 38.78674 0.32535 22928 ft 367 kts 253°
2026-04-29 13:31 38.78013 0.29396 22894 ft 364 kts 253°
2026-04-29 13:31 38.77361 0.26304 22551 ft 357 kts 253°
2026-04-29 13:31 38.76721 0.23279 22123 ft 352 kts 253°
2026-04-29 13:31 38.76083 0.20269 21673 ft 349 kts 253°
2026-04-29 13:32 38.75449 0.17280 21219 ft 345 kts 254°
2026-04-29 13:32 38.74824 0.14335 20770 ft 341 kts 254°
2026-04-29 13:32 38.74202 0.11409 20324 ft 338 kts 254°
2026-04-29 13:32 38.73585 0.08511 19882 ft 335 kts 254°
2026-04-29 13:33 38.72981 0.05681 19450 ft 331 kts 254°
2026-04-29 13:33 38.72371 0.02823 19013 ft 328 kts 254°
2026-04-29 13:33 38.71775 0.00033 18587 ft 325 kts 254°
2026-04-29 13:33 38.71180 -0.02745 18162 ft 322 kts 254°
2026-04-29 13:34 38.70590 -0.05499 17741 ft 319 kts 254°
2026-04-29 13:34 38.70010 -0.08204 17328 ft 316 kts 254°
2026-04-29 13:34 38.69428 -0.10912 16915 ft 313 kts 254°
2026-04-29 13:34 38.68857 -0.13569 16508 ft 310 kts 254°
2026-04-29 13:35 38.68283 -0.16234 16100 ft 308 kts 254°
2026-04-29 13:35 38.67718 -0.18859 15698 ft 305 kts 255°
2026-04-29 13:35 38.67157 -0.21458 15300 ft 302 kts 255°
2026-04-29 13:35 38.66604 -0.24016 14907 ft 300 kts 255°
2026-04-29 13:36 38.66048 -0.26586 14513 ft 297 kts 255°
2026-04-29 13:36 38.65499 -0.29119 14124 ft 295 kts 255°
2026-04-29 13:36 38.64954 -0.31633 13738 ft 293 kts 255°
2026-04-29 13:36 38.64406 -0.34159 13350 ft 290 kts 255°
2026-04-29 13:37 38.63872 -0.36617 12973 ft 291 kts 255°
2026-04-29 13:37 38.63327 -0.39121 12589 ft 293 kts 255°
2026-04-29 13:37 38.62781 -0.41628 12195 ft 291 kts 255°
2026-04-29 13:37 38.62237 -0.44125 11798 ft 289 kts 255°
2026-04-29 13:38 38.61703 -0.46572 11421 ft 287 kts 255°
2026-04-29 13:38 38.61170 -0.49007 11047 ft 284 kts 255°
2026-04-29 13:38 38.60638 -0.51438 10674 ft 282 kts 255°
2026-04-29 13:38 38.60110 -0.53851 10302 ft 280 kts 254°
2026-04-29 13:39 38.59591 -0.56220 9953 ft 276 kts 254°
2026-04-29 13:39 38.59079 -0.58552 9757 ft 268 kts 254°
2026-04-29 13:39 38.58574 -0.60845 9380 ft 272 kts 254°
2026-04-29 13:39 38.58062 -0.63173 9027 ft 270 kts 254°
2026-04-29 13:40 38.57559 -0.65459 8683 ft 268 kts 253°
2026-04-29 13:40 38.57056 -0.67740 8343 ft 265 kts 253°
2026-04-29 13:40 38.56557 -0.70005 8004 ft 263 kts 253°
2026-04-29 13:40 38.56061 -0.72251 7678 ft 261 kts 253°
2026-04-29 13:41 38.55569 -0.74470 7519 ft 262 kts 253°
2026-04-29 13:41 38.55073 -0.76712 7359 ft 260 kts 253°
2026-04-29 13:41 38.54573 -0.78944 6876 ft 264 kts 250°
2026-04-29 13:41 38.53697 -0.80970 6419 ft 263 kts 224°
2026-04-29 13:42 38.52155 -0.82044 6238 ft 251 kts 190°
2026-04-29 13:42 38.50460 -0.82308 6112 ft 240 kts 188°
2026-04-29 13:42 38.48842 -0.82741 5816 ft 238 kts 192°
2026-04-29 13:42 38.47225 -0.83167 5527 ft 236 kts 190°
2026-04-29 13:43 38.45623 -0.83536 5231 ft 234 kts 190°
2026-04-29 13:43 38.44009 -0.83903 4919 ft 233 kts 189°
2026-04-29 13:43 38.42417 -0.84268 4601 ft 232 kts 189°
2026-04-29 13:43 38.40847 -0.84622 4303 ft 231 kts 189°
2026-04-29 13:44 38.39267 -0.84975 3990 ft 230 kts 189°
2026-04-29 13:44 38.37686 -0.85333 3654 ft 231 kts 188°
2026-04-29 13:44 38.36139 -0.85678 3522 ft 219 kts 188°
2026-04-29 13:44 38.34650 -0.85992 3487 ft 217 kts 185°
2026-04-29 13:45 38.33223 -0.85718 3482 ft 208 kts 150°
2026-04-29 13:45 38.32276 -0.84445 3492 ft 198 kts 113°
2026-04-29 13:45 38.31968 -0.82693 3496 ft 202 kts 102°
2026-04-29 13:45 38.31713 -0.81025 3484 ft 183 kts 102°
2026-04-29 13:46 38.31496 -0.79468 3485 ft 171 kts 102°
2026-04-29 13:46 38.31289 -0.77981 3371 ft 174 kts 102°
2026-04-29 13:46 38.31088 -0.76490 3176 ft 163 kts 102°
2026-04-29 13:46 38.30896 -0.75115 2939 ft 158 kts 102°
2026-04-29 13:47 38.30714 -0.73781 2727 ft 149 kts 102°
2026-04-29 13:47 38.30534 -0.72489 2546 ft 150 kts 101°
2026-04-29 13:47 38.30352 -0.71180 2329 ft 148 kts 101°
2026-04-29 13:47 38.30174 -0.69907 2132 ft 147 kts 101°
2026-04-29 13:48 38.29996 -0.68612 1928 ft 147 kts 100°
2026-04-29 13:48 38.29822 -0.67343 1727 ft 146 kts 101°
2026-04-29 13:48 38.29643 -0.66067 1530 ft 148 kts 101°
2026-04-29 13:48 38.29468 -0.64800 1325 ft 144 kts 102°
2026-04-29 13:49 38.29296 -0.63555 1141 ft 144 kts 98°
2026-04-29 13:49 38.29164 -0.62287 940 ft 146 kts 99°
2026-04-29 13:49 38.28950 -0.61044 750 ft 147 kts 105°
2026-04-29 13:49 38.28762 -0.59792 550 ft 142 kts 101°
2026-04-29 13:50 38.28599 -0.58542 377 ft 141 kts 101°
2026-04-29 13:50 38.28417 -0.57261 152 ft 144 kts 102°
2026-04-29 13:50 38.28239 -0.56049 153 ft 139 kts 101°
2026-04-29 13:50 38.28066 -0.54827 152 ft 138 kts 98°
2026-04-29 13:51 38.27966 -0.53738 152 ft 110 kts 91°
2026-04-29 13:51 38.27988 -0.52876 64 ft 80 kts 75°
2026-04-29 13:51 38.28154 -0.52375 28 ft 40 kts 56°
2026-04-29 13:51 38.28222 -0.52264 33 ft 0 kts 46°